Погода в Пагадиане

Филиппины     7°47′59″N   123°23′17″E
темп.,
°C
ветер,
м/с
пор.,
м/с
влажн.,
%
обл.,
%
осадки,
мм/ч
давл.,
гПа
погр.,
м
28 февраля, вс
вс2823:00+26ссв22847 0.5 1010170
02:00+26с23864 0.5 1009157
05:00+25ссв23830 0.0 1009132
08:00+27ссв227611 0.0 1011236
11:00+29вюв11680 0.0 1010541
14:00+30юв326825 0.4 1009560
17:00+28вюв117590 2.9 1008109
20:00+27ссв358095 2.9 1011292
1 марта, пн
пн123:00+26с338495 0.8 1011122
02:00+25с228663 0.9 1010132
05:00+25ссв22874 0.0 1010153
08:00+27ссв118122 0.1 1013284
11:00+29ююв217182 0.0 1012555
14:00+30ююв216787 0.6 1010575
17:00+29всв227399 1.6 1009444
20:00+26ссв478652 2.9 1012270
2 марта, вт
вт223:00+26ссв348626 0.0 1013197
02:00+25с348549 0.0 1011165
05:00+25с338626 0.0 1011164
08:00+26ссв348134 0.0 1012310
11:00+30всв126387 0.0 1012554
14:00+31юв336280 0.0 1009865
17:00+29в247172 0.8 1009289
20:00+27ссв357887 0.9 1011243
3 марта, ср
ср323:00+26ссв348198 0.0 1012217
02:00+25с348590 0.0 1011174
05:00+25с23850 0.0 1011148
08:00+26ссв338015 0.0 1013323
11:00+30ссв246194 0.0 1012895
14:00+31юв345785 0.0 10091051
17:00+30всв47630 0.0 1009591
20:00+26ссв59740 0.0 1011393
4 марта, чт
чт423:00+26с46750 0.0 1012332
02:00+25ссв35804 0.0 1011259
05:00+24с34850 0.0 1011182
08:00+26ссв34790 0.0 1013333
11:00+30вюв24560 0.0 1012725
14:00+29ююв43620 0.0 1009525
17:00+29св57630 0.0 1009487
20:00+26ссв477311 0.0 1011276